| time (UTC) | temp C | wind direction | speed KPH | gust KPH | rain 1hr cm | rain 24hr cm | rain mn cm | humidity % | barometer mb |
| 20260506110036 | 17 | 273 | 29.0 | 56.3 | 0.00 | 0.00 | 0.00 | 69 | 1013.8 |
| 20260506104540 | 16 | 223 | 29.0 | 53.1 | 0.00 | 0.00 | 0.00 | 70 | 1013.9 |
| 20260506103037 | 15 | 229 | 25.7 | 54.7 | 0.00 | 0.00 | 0.00 | 71 | 1013.8 |
| 20260506101545 | 15 | 217 | 22.5 | 43.5 | 0.00 | 0.00 | 0.00 | 72 | 1014.1 |
| 20260506100034 | 14 | 228 | 24.1 | 49.9 | 0.00 | 0.00 | 0.00 | 73 | 1014.0 |
| 20260506094536 | 14 | 247 | 29.0 | 43.5 | 0.00 | 0.00 | 0.00 | 74 | 1013.7 |
| 20260506093033 | 14 | 248 | 25.7 | 54.7 | 0.00 | 0.00 | 0.00 | 73 | 1013.7 |
| 20260506091532 | 14 | 217 | 30.6 | 46.7 | 0.00 | 0.00 | 0.00 | 75 | 1013.4 |
| 20260506090033 | 13 | 245 | 24.1 | 49.9 | 0.00 | 0.00 | 0.00 | 77 | 1013.2 |
| 20260506084541 | 13 | 246 | 22.5 | 41.8 | 0.00 | 0.00 | 0.00 | 76 | 1012.9 |
| 20260506083037 | 13 | 234 | 24.1 | 40.2 | 0.00 | 0.00 | 0.00 | 78 | 1013.0 |
| 20260506081534 | 12 | 227 | 20.9 | 38.6 | 0.00 | 0.00 | 0.00 | 78 | 1012.9 |
| 20260506073037 | 12 | 245 | 22.5 | 38.6 | 0.00 | 0.00 | 0.00 | 78 | 1013.4 |
| 20260506071537 | 13 | 223 | 16.1 | 29.0 | 0.00 | 0.00 | 0.00 | 77 | 1013.3 |
| 20260506061534 | 12 | 217 | 16.1 | 32.2 | 0.00 | 0.00 | 0.00 | 76 | 1013.3 |
| 20260506044534 | 12 | 275 | 27.4 | 49.9 | 0.00 | 0.00 | 0.00 | 75 | 1013.0 |
| 20260506043033 | 13 | 329 | 30.6 | 46.7 | 0.00 | 0.00 | 0.00 | 74 | 1012.9 |
| 20260506041536 | 13 | 262 | 29.0 | 49.9 | 0.00 | 0.00 | 0.00 | 73 | 1012.5 |
| 20260506040039 | 13 | 221 | 29.0 | 53.1 | 0.00 | 0.00 | 0.00 | 72 | 1012.5 |
| 20260506034534 | 14 | 234 | 29.0 | 48.3 | 0.00 | 0.00 | 0.00 | 71 | 1012.3 |
| 20260506033035 | 15 | 237 | 30.6 | 59.5 | 0.00 | 0.00 | 0.00 | 67 | 1012.4 |
| 20260506031535 | 15 | 242 | 27.4 | 53.1 | 0.00 | 0.00 | 0.00 | 67 | 1012.3 |
| 20260506030035 | 15 | 258 | 37.0 | 54.7 | 0.00 | 0.00 | 0.00 | 67 | 1012.2 |
| 20260506024536 | 15 | 243 | 32.2 | 57.9 | 0.00 | 0.00 | 0.00 | 68 | 1012.1 |
| 20260506023046 | 15 | 250 | 30.6 | 49.9 | 0.00 | 0.00 | 0.00 | 68 | 1012.4 |
| 20260506021536 | 14 | 240 | 27.4 | 46.7 | 0.00 | 0.00 | 0.00 | 68 | 1012.4 |
| 20260506020035 | 14 | 208 | 24.1 | 43.5 | 0.00 | 0.00 | 0.00 | 69 | 1012.5 |
| 20260506014537 | 14 | 240 | 30.6 | 46.7 | 0.00 | 0.00 | 0.00 | 68 | 1012.4 |
| 20260506013033 | 15 | 223 | 27.4 | 49.9 | 0.00 | 0.00 | 0.00 | 65 | 1012.5 |
| 20260506011535 | 15 | 229 | 29.0 | 46.7 | 0.00 | 0.00 | 0.00 | 65 | 1012.2 |
| 20260506010047 | 15 | 238 | 25.7 | 56.3 | 0.00 | 0.00 | 0.00 | 64 | 1012.3 |
| 20260506004535 | 14 | 217 | 20.9 | 33.8 | 0.00 | 0.00 | 0.00 | 65 | 1012.0 |
| 20260506003034 | 15 | 236 | 22.5 | 43.5 | 0.00 | 0.00 | 0.00 | 62 | 1011.6 |
| 20260506001539 | 15 | 230 | 24.1 | 38.6 | 0.00 | 0.00 | 0.00 | 60 | 1011.4 |
| 20260506000034 | 15 | 216 | 19.3 | 38.6 | 0.00 | 0.00 | 0.00 | 60 | 1011.4 |
| 20260505234551 | 15 | 162 | 19.3 | 35.4 | 0.00 | 0.00 | 0.00 | 59 | 1011.1 |
| 20260505233039 | 15 | 215 | 11.3 | 27.4 | 0.00 | 0.00 | 0.00 | 57 | 1010.9 |
| 20260505231535 | 15 | 213 | 16.1 | 33.8 | 0.00 | 0.00 | 0.00 | 56 | 1010.8 |
| 20260505230034 | 14 | 173 | 11.3 | 22.5 | 0.00 | 0.00 | 0.00 | 59 | 1010.7 |
| 20260505224536 | 16 | 199 | 12.9 | 25.7 | 0.00 | 0.00 | 0.00 | 53 | 1010.5 |
| 20260505223041 | 17 | 202 | 17.7 | 32.2 | 0.00 | 0.00 | 0.00 | 53 | 1010.5 |
| 20260505221536 | 17 | 236 | 16.1 | 27.4 | 0.00 | 0.00 | 0.00 | 51 | 1010.3 |
| 20260505220036 | 17 | 209 | 17.7 | 33.8 | 0.00 | 0.00 | 0.00 | 53 | 1010.2 |
| 20260505214558 | 19 | 221 | 22.5 | 37.0 | 0.00 | 0.00 | 0.00 | 48 | 1010.3 |
| 20260505213036 | 19 | 231 | 17.7 | 32.2 | 0.00 | 0.00 | 0.00 | 49 | 1010.1 |
| 20260505211535 | 20 | 232 | 19.3 | 38.6 | 0.00 | 0.00 | 0.00 | 46 | 1010.2 |
| 20260505210034 | 18 | 202 | 20.9 | 43.5 | 0.00 | 0.00 | 0.00 | 51 | 1010.3 |
| 20260505204537 | 16 | 187 | 14.5 | 27.4 | 0.00 | 0.00 | 0.00 | 57 | 1010.1 |
| 20260505203040 | 17 | 166 | 14.5 | 29.0 | 0.00 | 0.00 | 0.00 | 54 | 1010.0 |
| 20260505201537 | 16 | 244 | 16.1 | 25.7 | 0.00 | 0.00 | 0.00 | 58 | 1010.0 |
| 20260505200046 | 15 | 179 | 17.7 | 33.8 | 0.00 | 0.00 | 0.00 | 60 | 1009.9 |
| 20260505194544 | 16 | 111 | 17.7 | 30.6 | 0.00 | 0.00 | 0.00 | 56 | 1009.9 |
| 20260505193036 | 22 | 165 | 11.3 | 38.6 | 0.00 | 0.00 | 0.00 | 39 | 1009.7 |
| 20260505191535 | 23 | 277 | 24.1 | 43.5 | 0.00 | 0.00 | 0.00 | 32 | 1009.4 |
| 20260505190037 | 23 | 257 | 20.9 | 43.5 | 0.00 | 0.00 | 0.00 | 36 | 1009.5 |
| 20260505184534 | 23 | 247 | 29.0 | 51.5 | 0.00 | 0.00 | 0.00 | 36 | 1009.5 |
| 20260505183033 | 23 | 232 | 24.1 | 51.5 | 0.00 | 0.00 | 0.00 | 36 | 1009.6 |
| 20260505181537 | 23 | 229 | 24.1 | 48.3 | 0.00 | 0.00 | 0.00 | 36 | 1009.5 |
| 20260505180057 | 23 | 219 | 25.7 | 54.7 | 0.00 | 0.00 | 0.00 | 36 | 1009.5 |
| 20260505174550 | 21 | 237 | 27.4 | 49.9 | 0.00 | 0.00 | 0.00 | 45 | 1009.6 |
| 20260505173042 | 18 | 211 | 17.7 | 35.4 | 0.00 | 0.00 | 0.00 | 58 | 1010.0 |
| 20260505171533 | 16 | 175 | 19.3 | 33.8 | 0.00 | 0.00 | 0.00 | 64 | 1009.9 |
| 20260505170037 | 16 | 167 | 19.3 | 37.0 | 0.00 | 0.00 | 0.00 | 62 | 1010.1 |
| 20260505164535 | 13 | 180 | 19.3 | 35.4 | 0.00 | 0.03 | 0.00 | 67 | 1010.1 |
| 20260505163035 | 13 | 149 | 14.5 | 29.0 | 0.00 | 0.03 | 0.00 | 68 | 1010.0 |
| 20260505161537 | 13 | 170 | 20.9 | 30.6 | 0.00 | 0.03 | 0.00 | 69 | 1010.1 |
| 20260505153036 | 12 | 154 | 12.9 | 27.4 | 0.00 | 0.38 | 0.00 | 69 | 1010.5 |
| 20260505151535 | 13 | 148 | 16.1 | 30.6 | 0.00 | 0.38 | 0.00 | 64 | 1010.3 |
| 20260505124543 | 13 | 246 | 14.5 | 25.7 | 0.00 | 0.74 | 0.00 | 64 | 1010.7 |
| 20260505123037 | 12 | 204 | 8.0 | 20.9 | 0.00 | 0.74 | 0.00 | 67 | 1010.5 |
| 20260505121535 | 8 | 101 | 3.2 | 14.5 | 0.00 | 0.74 | 0.00 | 78 | 1010.4 |
| 20260505120043 | 7 | 135 | 11.3 | 16.1 | 0.00 | 0.74 | 0.00 | 78 | 1010.2 |
| 20260505114540 | 7 | 145 | 9.7 | 22.5 | 0.00 | 0.74 | 0.00 | 79 | 1010.2 |
| 20260505113036 | 9 | 138 | 8.0 | 22.5 | 0.00 | 0.74 | 0.00 | 75 | 1010.2 |
| 20260505111537 | 9 | 239 | 11.3 | 25.7 | 0.00 | 0.74 | 0.00 | 76 | 1010.0 |